Location: Grand Lay
(47.3253°N, 0.9468°E)
Time: 15:13:10
(UTC+00:00)

NOSS 3-2 (A) - Pass Details

Date: 18 January 2026
Orbit: 669 x 1534 km, 63.4° (Epoch: 2 January)

Event Time Altitude Azimuth Distance (km) Brightness Sun altitude
Rises 06:46:12 0° 201° (SSW) 3,049 6.1 -8.5°
Reaches altitude 10° 06:48:26 10° 196° (SSW) 2,184 5.4 -8.2°
Maximum altitude 06:53:11 51° 121° (ESE) 977 4.1 -7.4°
Drops below altitude 10° 06:58:50 10° 47° (NE) 2,586 6.1 -6.6°
Sets 07:01:40 0° 43° (NE) 3,668 6.8 -6.1°
